{"data":{"norad_id":62777,"intl_designator":"2025-015V","name":"STARLINK-33591","alt_names":[],"object_type":"PAYLOAD","status":"ACTIVE","operator":null,"country":"US","launch_date":"2025-01-21","launch_site_code":"AFWTR","launch_vehicle":null,"mission":null,"orbit_class":"UNKNOWN","rcs_meters":null,"size_class":null,"mass_kg":null,"dimensions":null,"purposes":["comms"],"wikipedia_slug":null,"has_3d_model":false,"image_url":null,"decayed_at":null,"tle_current":{"epoch":"2026-09-21T20:49:23.579328Z","epoch_age_seconds":53172,"freshness":"FRESH","line1":"1 62777U 25015V   26264.86763402  .00011108  00000+0  33926-3 0  9994","line2":"2 62777  53.1578 127.2037 0001269  96.2476 263.8671 15.34413108 94572","mean_motion":15.34413108,"eccentricity":0.0001269,"inclination_deg":53.1578,"raan_deg":127.2037,"arg_perigee_deg":96.2476,"mean_anomaly_deg":263.8671,"bstar":0.00033926,"rev_number":9457,"period_min":93.846956369979,"perigee_km":461.79618306354,"apogee_km":463.5323784286,"semimajor_km":6840.8012807461,"source":"CELESTRAK","updated_at":"2026-09-22T09:00:49.664490Z"}}}